Oceana NAS, VA

4:47 PM EST on December 18, 2017 (GMT -0500)
Oceana Naval Air Station

Weather History for KNTU - April, 2013

Change the Weather History Date:

Tuesday, April 2, 2013

  Actual Average Record
Temperature  
Mean Temperature 47 °F -  
Max Temperature 54 °F 62 °F 84 °F (2007)
Min Temperature 41 °F 43 °F 37 °F (2011)
Degree Days  
Heating Degree Days 18    
Moisture  
Dew Point 27 °F    
Average Humidity 47    
Maximum Humidity 71    
Minimum Humidity 29    
Precipitation  
Precipitation 0.00 in - - ()
Sea Level Pressure  
Sea Level Pressure 30.09 in    
Wind  
Wind Speed 10 mph (NE)    
Max Wind Speed 16 mph    
Max Gust Speed 22 mph    
Visibility 10 miles    
Events      
Averages and records for this station are not official NWS values.
T = Trace of Precipitation, MM = Missing Value Source: NWS Daily Summary

Daily Weather History Graph

Daily Weather History Graph

Search for Another Location

Airport or City:

Trip Planner

Search our weather history database for the weather conditions in past years. The results will help you decide how hot, cold, wet, or windy it might be!

Date:

Astronomy

Apr. 02, 2013 Rise Set
Actual Time 6:48 AM EDT 7:27 PM EDT
Civil Twilight 6:22 AM EDT 7:53 PM EDT
Nautical Twilight 5:51 AM EDT 8:24 PM EDT
Astronomical Twilight 5:19 AM EDT 8:56 PM EDT
Moon 1:24 AM EDT (4/2) 11:42 AM EDT (4/2)
Length of Visible Light 13h 31m
Length of Day
12h 39m
Waning Gibbous, 56% of the Moon is Illuminated
Apr 2
Waning Gibbous
Apr 3
Last Quarter
Apr 10
New
Apr 18
First Quarter
Apr 25
Full

Hourly Weather History & Observations

Time (EDT) Temp. Windchill Dew Point Humidity Pressure Visibility Wind Dir Wind Speed Gust Speed Precip Events Conditions
12:56 AM 48.0 °F - 32.0 °F 54% 29.99 in 10.0 mi North 16.1 mph 21.9 mph N/A   Scattered Clouds
1:56 AM 46.9 °F - 30.0 °F 52% 30.01 in 10.0 mi North 13.8 mph - N/A   Scattered Clouds
2:56 AM 46.0 °F 41.0 °F 27.0 °F 47% 30.01 in 10.0 mi North 10.4 mph - N/A   Partly Cloudy
3:56 AM 45.0 °F 42.6 °F 28.9 °F 53% 30.02 in 10.0 mi North 4.6 mph - N/A   Mostly Cloudy
4:56 AM 46.0 °F 41.4 °F 26.1 °F 46% 30.04 in 10.0 mi North 9.2 mph - N/A   Mostly Cloudy
5:56 AM 45.0 °F 39.3 °F 26.1 °F 48% 30.06 in 10.0 mi North 11.5 mph - N/A   Overcast
6:56 AM 41.0 °F 37.1 °F 26.1 °F 55% 30.09 in 10.0 mi NE 5.8 mph - N/A   Scattered Clouds
7:56 AM 46.0 °F 43.9 °F 27.0 °F 47% 30.13 in 10.0 mi NNE 4.6 mph - N/A   Partly Cloudy
8:56 AM 46.9 °F - 21.9 °F 37% 30.14 in 10.0 mi NNW 9.2 mph - N/A   Clear
9:56 AM 48.9 °F - 21.0 °F 33% 30.14 in 10.0 mi NNW 6.9 mph - N/A   Partly Cloudy
10:56 AM 50.0 °F - 19.0 °F 29% 30.14 in 10.0 mi North 6.9 mph - N/A   Scattered Clouds
11:56 AM 50.0 °F - 19.9 °F 31% 30.12 in 10.0 mi Calm Calm - N/A   Scattered Clouds
12:56 PM 53.1 °F - 21.0 °F 29% 30.09 in 10.0 mi WNW 10.4 mph 20.7 mph N/A   Scattered Clouds
1:56 PM 51.1 °F - 25.0 °F 36% 30.09 in 10.0 mi East 10.4 mph - N/A   Scattered Clouds
2:56 PM 51.1 °F - 25.0 °F 36% 30.07 in 10.0 mi East 6.9 mph - N/A   Partly Cloudy
3:56 PM 51.1 °F - 25.0 °F 36% 30.06 in 10.0 mi SSE 10.4 mph - N/A   Partly Cloudy
4:56 PM 51.1 °F - 28.0 °F 41% 30.05 in 10.0 mi ESE 11.5 mph - N/A   Partly Cloudy
5:56 PM 50.0 °F - 28.0 °F 43% 30.07 in 10.0 mi SE 10.4 mph - N/A   Partly Cloudy
6:56 PM 46.9 °F - 28.9 °F 50% 30.09 in 10.0 mi SSE 11.5 mph - N/A   Partly Cloudy
7:56 PM 45.0 °F 41.2 °F 28.9 °F 53% 30.11 in 10.0 mi SSE 6.9 mph - N/A   Partly Cloudy
8:56 PM 44.1 °F 41.5 °F 30.0 °F 58% 30.13 in 10.0 mi SE 4.6 mph - N/A   Clear
9:56 PM 42.1 °F 38.4 °F 30.9 °F 65% 30.14 in 10.0 mi SSE 5.8 mph - N/A   Clear
10:56 PM 41.0 °F - 32.0 °F 70% 30.13 in 10.0 mi Calm Calm - N/A   Clear
11:56 PM 43.0 °F - 34.0 °F 71% 30.14 in 10.0 mi Calm Calm - N/A   Clear